[[{"header":{"parameterUnit":"m.s-1","parameterCategory":1,"la1":30.2991,"la2":30.254,"lo1":-89.0895,"lo2":-89.0444,"dy":0.0017,"dx":0.0017,"nx":28,"ny":28,"refTime":"2025-12-13T03:00:00:Z","depth":0,"parameterNumber":2,"parameterNumberName":"U-component_of_WINDS"},"data":[0,0,0,0,0,0,0,0,0,0,0,0,0,0,0,0,0,0,0,0,0,0,0,0,0,0,0,0,0,0,0,0,0,0,0,0,0,0,0,0,0,0,0,0,0,0,0,0,0,0,0,0,0,0,0,0,0,0,1.6535,1.6536,0,1.6614,1.6615,1.6616,1.6607,1.6605,1.6604,1.6603,1.6686,1.6689,1.6692,0,0,0,0,0,0,0,0,0,0,0,0,0,1.6379,1.6382,1.6535,1.6536,1.6537,1.6614,1.6615,1.6616,1.6607,1.6605,1.6604,1.6602,1.6684,1.6688,1.6692,0,0,0,0,0,0,0,0,0,0,0,0,0,1.6451,1.6383,1.6535,1.6542,1.6543,1.6613,1.6615,1.6616,1.6607,1.6605,1.6603,1.6602,1.6683,1.6688,1.6693,1.6762,0,0,1.6709,1.6711,0,0,0,0,0,0,0,0,1.6447,1.6457,1.654,1.6541,1.6543,1.6598,1.659,1.6665,1.6608,1.6583,1.6603,1.6601,1.6658,1.6665,1.6684,1.6766,1.677,1.6709,1.6712,1.6714,1.6716,0,0,0,0,0,0,0,1.6442,1.6453,1.6566,1.6541,1.6543,1.6541,1.655,1.6604,1.663,1.6585,1.6584,1.6594,1.6659,1.6679,1.6686,1.6771,1.6709,1.6713,1.6716,1.6718,1.6914,1.6917,0,0,0,0,0,0,1.6435,1.6449,1.6564,1.6569,1.6489,1.6546,1.6555,1.6583,1.663,1.6635,1.6595,1.6593,1.6672,1.668,1.6689,1.6774,1.6714,1.6719,1.6722,1.6912,1.6915,1.6917,0,0,0,0,0,0,1.6432,1.6445,1.656,1.6509,1.6523,1.6551,1.6582,1.6585,1.6606,1.6637,1.6642,1.6611,1.667,1.6682,1.6744,1.6776,1.6721,1.6726,1.691,1.6913,1.6916,1.6943,0,0,0,0,0,0,1.6427,1.6444,1.647,1.6509,1.6526,1.6614,1.6584,1.6588,1.6614,1.6612,1.6654,1.6659,1.667,1.6737,1.6749,1.6782,1.673,1.6907,1.6911,1.6915,1.6939,1.6947,1.6953,0,0,0,0,0,1.6422,1.6475,1.6472,1.6485,1.6559,1.6616,1.6625,1.6636,1.6617,1.6644,1.6664,1.6658,1.6771,1.6743,1.6757,1.6792,1.6905,1.691,1.6915,1.6936,1.6945,1.6953,0,0,0,0,0,0,1.6439,1.648,1.6477,1.6544,1.6576,1.6614,1.6648,1.6645,1.6684,1.668,1.6693,1.6702,1.6765,1.6785,1.6754,1.6862,1.6835,1.6843,1.6847,1.6856,1.6863,1.6857,1.6734,0,0,0,0,0,1.6451,1.6492,1.6526,1.6582,1.6599,1.6621,1.6646,1.6651,1.6685,1.6699,1.6724,1.6758,1.6801,1.683,1.6871,1.6942,1.6952,1.6973,1.698,1.6986,1.6993,1.7032,1.7043,1.6933,1.6933,1.6933,0,0,1.6475,1.6503,1.6529,1.6587,1.6612,1.6656,1.6632,1.6679,1.6712,1.6706,1.6767,1.6787,1.6825,1.6892,1.6923,1.6911,1.7025,1.6992,1.6996,1.7,1.7039,1.7049,1.7058,1.6937,1.6936,1.6936,0,0,1.6542,1.6567,1.6617,1.6643,1.6682,1.6696,1.6708,1.6746,1.6759,1.682,1.6817,1.6856,1.693,1.6958,1.6982,1.7061,1.7056,1.7074,1.711,1.7149,1.7157,1.7165,1.7193,1.7204,1.708,1.7081,1.7081,0,1.6568,1.6633,1.6643,1.6691,1.6717,1.6713,1.6764,1.6789,1.684,1.6859,1.6844,1.6937,1.6963,1.7037,1.7056,1.7075,1.709,1.7069,1.7155,1.7163,1.717,1.7198,1.7208,1.7082,1.7082,1.7082,1.7082,0,1.6663,1.6708,1.6744,1.6793,1.6823,1.6872,1.689,1.6919,1.6923,1.6939,1.7001,1.7032,1.708,1.7098,1.7102,1.7173,1.7164,1.7152,1.7125,1.7182,1.7208,1.7219,1.7085,1.7084,1.7084,1.7083,0,0,1.6743,1.6797,1.681,1.6832,1.6875,1.6911,1.696,1.7007,1.7032,1.7067,1.711,1.7173,1.7162,1.7189,1.7196,1.723,1.7291,1.7214,1.7215,1.7228,1.7372,1.7381,1.7393,1.7288,1.729,1.7292,1.7369,0,1.6815,1.6901,1.6912,1.6989,1.7032,1.7029,1.7073,1.7104,1.7121,1.716,1.7178,1.7223,1.7205,1.7222,1.7255,1.7276,1.732,1.7271,1.7329,1.7331,1.7319,1.7407,1.7416,1.7487,1.7379,1.7381,1.7382,0,1.691,1.6947,1.7029,1.7066,1.7085,1.7123,1.7167,1.7204,1.724,1.725,1.7281,1.7283,1.7335,1.7307,1.7379,1.7345,1.737,1.7384,1.7387,1.7393,1.736,1.7416,1.751,1.7521,1.7398,1.7397,1.7396,0,1.696,1.7031,1.7089,1.7109,1.7154,1.7181,1.7202,1.7236,1.7263,1.7302,1.732,1.7364,1.7389,1.7424,1.7439,1.7416,1.7511,1.7483,1.7521,1.7521,1.7541,1.754,1.7642,1.7556,1.7556,1.7556,1.7556,0,1.7039,1.7089,1.7113,1.7149,1.7205,1.7217,1.7273,1.7292,1.7323,1.7363,1.7364,1.7402,1.7419,1.746,1.7472,1.7531,1.7542,1.7552,1.7555,1.7552,1.7551,1.7568,1.7564,1.7559,1.7558,1.7557,1.7557,0,1.7105,1.7123,1.7186,1.7224,1.7235,1.7275,1.7308,1.7343,1.7359,1.741,1.7423,1.7449,1.7497,1.7515,1.7574,1.7583,1.765,1.7649,1.7638,1.7639,1.7676,1.7673,1.7793,1.781,1.7713,1.7714,1.7715,0,1.7154,1.7193,1.7235,1.7261,1.7283,1.7326,1.7354,1.7368,1.7397,1.7441,1.7472,1.7519,1.7558,1.7636,1.7661,1.7706,1.7706,1.7745,1.7713,1.7709,1.7707,1.7705,1.7709,1.7751,1.7752,1.7753,1.7754,0,1.724,1.7247,1.7287,1.7331,1.7364,1.7399,1.7433,1.7455,1.7474,1.7507,1.7556,1.7587,1.7647,1.7695,1.7742,1.7764,1.7762,1.7764,1.7775,1.7773,1.7765,1.777,1.7655,1.7761,1.776,1.7759,1.7759,1.7759,1.7299,1.7334,1.7369,1.7414,1.7441,1.7473,1.7508,1.7529,1.7569,1.7619,1.7625,1.7678,1.7714,1.7777,1.7801,1.7843,1.7833,1.7849,1.7853,1.7857,1.786,1.7758,1.7852,1.7851,1.7851,1.7851,1.7851,0,1.7385,1.7408,1.7449,1.7497,1.7532,1.7527,1.7565,1.7595,1.7642,1.7675,1.7714,1.7771,1.7817,1.7846,1.7893,1.7922,1.7922,1.7934,1.7932,1.7937,1.7866,1.7852,1.7932,1.7932,1.7932,1.7932,1.7932,1.7932,1.7434,1.7492,1.7504,1.7575,1.7598,1.7649,1.7671,1.7701,1.7728,1.7792,1.783,1.7848,1.788,1.793,1.7973,1.798,1.7998,1.801,1.8017,1.795,1.7942,1.7934,1.792,1.8014,1.8014,1.8084,1.8085,1.8085]},{"header":{"parameterUnit":"m.s-1","parameterCategory":1,"la1":30.2991,"la2":30.254,"lo1":-89.0895,"lo2":-89.0444,"dy":0.0017,"dx":0.0017,"nx":28,"ny":28,"refTime":"2025-12-13T03:00:00:Z","depth":0,"parameterNumber":3,"parameterNumberName":"V-component_of_WINDS"},"data":[0,0,0,0,0,0,0,0,0,0,0,0,0,0,0,0,0,0,0,0,0,0,0,0,0,0,0,0,0,0,0,0,0,0,0,0,0,0,0,0,0,0,0,0,0,0,0,0,0,0,0,0,0,0,0,0,0,0,0.571,0.571,0,0.5694,0.5694,0.5693,0.5678,0.5678,0.5678,0.5678,0.5662,0.5662,0.5662,0,0,0,0,0,0,0,0,0,0,0,0,0,0.5729,0.5729,0.571,0.571,0.571,0.5694,0.5694,0.5693,0.5678,0.5678,0.5678,0.5678,0.5662,0.5662,0.5662,0,0,0,0,0,0,0,0,0,0,0,0,0,0.5718,0.5729,0.571,0.57,0.5699,0.5694,0.5694,0.5693,0.5678,0.5678,0.5678,0.5678,0.5662,0.5662,0.5662,0.5665,0,0,0.5661,0.566,0,0,0,0,0,0,0,0,0.5718,0.5717,0.5702,0.5701,0.57,0.5688,0.5695,0.5684,0.5678,0.5686,0.5678,0.5677,0.5671,0.567,0.5668,0.5664,0.5664,0.5661,0.566,0.566,0.566,0,0,0,0,0,0,0,0.5719,0.5718,0.5704,0.5702,0.57,0.5697,0.5695,0.5692,0.5681,0.5686,0.5684,0.5683,0.567,0.5668,0.5667,0.5664,0.5661,0.566,0.566,0.566,0.5662,0.5663,0,0,0,0,0,0,0.5721,0.5718,0.5704,0.5703,0.5708,0.5697,0.5695,0.5692,0.568,0.5678,0.5683,0.5682,0.5669,0.5668,0.5666,0.567,0.566,0.566,0.566,0.5662,0.5662,0.5663,0,0,0,0,0,0,0.5722,0.572,0.5705,0.571,0.5708,0.5697,0.5694,0.5692,0.5689,0.5678,0.5676,0.5683,0.5668,0.5667,0.5665,0.5669,0.566,0.5659,0.5662,0.5662,0.5663,0.5677,0,0,0,0,0,0,0.5722,0.572,0.5722,0.5711,0.5708,0.5704,0.5694,0.5692,0.5689,0.5687,0.5678,0.5676,0.5668,0.5666,0.5665,0.5668,0.5659,0.5661,0.5662,0.5662,0.5676,0.5677,0.5679,0,0,0,0,0,0.5723,0.5726,0.5722,0.572,0.5709,0.5704,0.5703,0.5694,0.5689,0.569,0.5683,0.5676,0.5669,0.5666,0.5665,0.5668,0.5661,0.5662,0.5662,0.5675,0.5677,0.5679,0,0,0,0,0,0,0.5739,0.5725,0.5719,0.5719,0.5713,0.5702,0.5703,0.5696,0.5691,0.569,0.5679,0.5677,0.5677,0.5672,0.567,0.5671,0.5664,0.5664,0.5674,0.5676,0.5677,0.5679,0.5659,0,0,0,0,0,0.5742,0.5739,0.5727,0.5728,0.5725,0.5714,0.5712,0.5705,0.5699,0.5696,0.5689,0.5683,0.5679,0.5677,0.5673,0.5675,0.5673,0.5676,0.5678,0.5679,0.568,0.568,0.5682,0.5665,0.5665,0.5665,0,0,0.5749,0.5741,0.574,0.5731,0.5725,0.5723,0.5712,0.571,0.5708,0.5696,0.5694,0.5689,0.5681,0.5681,0.5681,0.5677,0.5684,0.568,0.5681,0.5681,0.5681,0.5683,0.5684,0.5665,0.5665,0.5665,0,0,0.5761,0.5754,0.5754,0.5748,0.574,0.5733,0.5733,0.5722,0.5718,0.5716,0.5706,0.5704,0.5698,0.5693,0.569,0.5699,0.5692,0.5698,0.5706,0.5707,0.5708,0.5709,0.5713,0.5714,0.5698,0.5698,0.5698,0,0.5771,0.5766,0.5755,0.5753,0.575,0.5738,0.5738,0.5733,0.5724,0.5722,0.5717,0.5709,0.5704,0.5702,0.5704,0.5702,0.5702,0.5699,0.5708,0.571,0.571,0.5714,0.5715,0.5699,0.5699,0.5699,0.5699,0,0.5779,0.5776,0.5777,0.5767,0.5764,0.5763,0.5752,0.575,0.5744,0.5737,0.5735,0.5727,0.5721,0.572,0.5714,0.5718,0.5716,0.571,0.5704,0.5713,0.5716,0.5717,0.57,0.57,0.57,0.5699,0,0,0.58,0.5785,0.5785,0.5781,0.577,0.5768,0.5766,0.576,0.5758,0.5752,0.5751,0.5746,0.574,0.5736,0.5729,0.573,0.5738,0.5724,0.5724,0.5727,0.5742,0.5747,0.5748,0.5733,0.5733,0.5733,0.5743,0,0.581,0.5807,0.5797,0.5796,0.5794,0.5782,0.5781,0.5774,0.5768,0.5764,0.5757,0.5754,0.5746,0.5744,0.5744,0.5737,0.5741,0.5736,0.5732,0.5732,0.5735,0.575,0.5755,0.5764,0.5744,0.5744,0.5744,0,0.5822,0.5816,0.5815,0.5804,0.5803,0.5802,0.5795,0.5792,0.5784,0.578,0.5775,0.5767,0.5765,0.5758,0.5755,0.5753,0.575,0.5746,0.5747,0.5746,0.5739,0.575,0.5767,0.5768,0.5745,0.5745,0.5745,0,0.5838,0.583,0.5828,0.5825,0.5812,0.5812,0.5806,0.5798,0.5795,0.5789,0.5787,0.5782,0.5779,0.5775,0.5765,0.5761,0.5764,0.5756,0.576,0.5761,0.5762,0.5762,0.5779,0.576,0.576,0.576,0.576,0,0.5851,0.5851,0.5836,0.5835,0.5834,0.5823,0.5823,0.5817,0.5809,0.5807,0.5797,0.5795,0.5783,0.578,0.5772,0.5771,0.577,0.5766,0.5765,0.5768,0.5768,0.5767,0.5766,0.576,0.576,0.576,0.576,0,0.587,0.5859,0.5857,0.5844,0.5841,0.5842,0.5831,0.583,0.5823,0.582,0.5819,0.5807,0.5803,0.5793,0.5787,0.5782,0.5783,0.5779,0.5785,0.5784,0.5789,0.5789,0.5806,0.5808,0.5787,0.5787,0.5787,0,0.5879,0.5878,0.5866,0.5863,0.5858,0.5855,0.5851,0.584,0.5836,0.5827,0.5827,0.5822,0.5817,0.5811,0.5803,0.5797,0.5794,0.58,0.5793,0.5796,0.5794,0.5795,0.5795,0.5802,0.5802,0.5802,0.5802,0,0.5896,0.5891,0.5886,0.5879,0.5875,0.5869,0.5863,0.5862,0.5849,0.5846,0.5841,0.5838,0.583,0.5825,0.5819,0.5814,0.5806,0.5804,0.5805,0.5809,0.5813,0.5811,0.579,0.5804,0.5804,0.5804,0.5804,0.5804,0.591,0.5909,0.59,0.5895,0.5889,0.5884,0.5882,0.5874,0.587,0.5862,0.5856,0.5852,0.5844,0.5834,0.5829,0.5826,0.5822,0.5823,0.5824,0.5824,0.5826,0.5812,0.5825,0.5825,0.5825,0.5825,0.5825,0,0.5928,0.5921,0.5916,0.5908,0.5904,0.5896,0.5889,0.5886,0.5882,0.5875,0.5871,0.5865,0.586,0.5851,0.5845,0.5844,0.5841,0.5843,0.5844,0.5843,0.5829,0.583,0.5846,0.5846,0.5846,0.5846,0.5846,0.5846,0.5936,0.5934,0.5928,0.5923,0.5916,0.5912,0.5908,0.5903,0.5897,0.5891,0.5887,0.5881,0.5873,0.5866,0.5861,0.5859,0.5857,0.5861,0.5858,0.5846,0.5844,0.5842,0.5842,0.5861,0.5861,0.5871,0.5871,0.5871]}]]